Location: Endfield
(51.6667°N, 0.0667°W)
Time: 20:31:46
(UTC+00:00)

Cosmos 2084 - Pass Details

Date: 19 May 2024
Orbit: 493 x 648 km, 62.8° (Epoch: 16 June)

Event Time Altitude Azimuth Distance (km) Brightness Sun altitude
Rises 21:25:34 0° 310° (NW) 2,590 8.5 -11.1°
Reaches altitude 10° 21:27:47 10° 304° (NW) 1,697 7.1 -11.3°
Maximum altitude 21:31:23 44° 232° (SW) 688 3.8 -11.6°
Enters shadow 21:33:58 17° 165° (SSE) 1,305 4.6 -11.8°
